QPF
0.00 0.00 0.00 0.00 0.00 0.00 0.00 0.00 0.00 0.00 0.00 0.00 0.00 0.00 0.00 0.00 0.00 0.00 0.00 0.00 0.00 0.00 0.00 0.00 0.00 0.00 0.00 0.00 0.00 0.00 0.00 0.00
0.00 0.00 0.00 0.00 0.00 0.00 0.00 0.00 0.00 0.00 0.00 0.00 0.00 0.00 0.00 0.00 0.00 0.00 0.00 0.00 0.00 0.00 0.00 0.00 0.00 0.00 0.00 0.00 0.00 0.00 0.00 0.00
0.00 0.00 0.00 0.00 0.00 0.00 0.00 0.00 0.00 0.00 0.00 0.00 0.00 0.00 0.00 0.00 0.00 0.00 0.00 0.00 0.00 0.00 0.00 0.00 0.00 0.00 0.00 0.00 0.00 0.00 0.00 0.00
0.00 0.00 0.00 0.00 0.00 0.00 0.00 0.00 0.00 0.00 0.00 0.00 0.00 0.00 0.00 0.00 0.00 0.00 0.00 0.00 0.00 0.00 0.00 0.00 0.00 0.00 0.00 0.00 0.00 0.00 0.00 0.00
0.00 0.00 0.00 0.00 0.00 0.00 0.00 0.00 0.00 0.00 0.00 0.00 0.00 0.00 0.00 0.00 0.00 0.00 0.00 0.00 0.00 0.00 0.00 0.00 0.00 0.00 0.00 0.00 0.00 0.00 0.00 0.00
0.00 0.00 0.00 0.00 0.00 0.00 0.00 0.00 0.00 0.00 0.00 0.00 0.00 0.00 0.00 0.00 0.00 0.00 0.00 0.00 0.00 0.00 0.00 0.00 0.00 0.00 0.00 0.00 0.00 0.00 0.00 0.00
0.00 0.00 0.00 0.00 0.00 0.00 0.00 0.00 0.00 0.00 0.00 0.00 0.00 0.00 0.00 0.00 0.00 0.00 0.00 0.00 0.00 0.00 0.00 0.00 0.00 0.00 0.00 0.00 0.00 0.00 0.00 0.00
0.00 0.00 0.00 0.00 0.00 0.00 0.00 0.00 0.00 0.00 0.00 0.00 0.00 0.00 0.00 0.00 0.00 0.00 0.00 0.00 0.00 0.00 0.00 0.00 0.00 0.00 0.00 0.00 0.00 0.00 0.00 0.00
0.00 0.00 0.00 0.00 0.00 0.00 0.00 0.00 0.00 0.00 0.00 0.00 0.00 0.00 0.00 0.00 0.00 0.00 0.00 0.00 0.00 0.00 0.00 0.00 0.00 0.00 0.00 0.00 0.00 0.00 0.00 0.00
0.00 0.00 0.00 0.00 0.00 0.00 0.00 0.00 0.00 0.00 0.00 0.00 0.00 0.00 0.00 0.00 0.00 0.00 0.00 0.00 0.00 0.00 0.00 0.00 0.00 0.00 0.00 0.00 0.00 0.00 0.00 0.00
0.00 0.00 0.00 0.00 0.00 0.00 0.00 0.00 0.00 0.00 0.00 0.00 0.00 0.00 0.00 0.00 0.00 0.00 0.00 0.00 0.00 0.00 0.00 0.00 0.00 0.00 0.00 0.00 0.00 0.00 0.00 0.00
0.00 0.00 0.00 0.00 0.00 0.00 0.00 0.00 0.00 0.00 0.00 0.00 0.00 0.00 0.00 0.00 0.00 0.00 0.00 0.00 0.00 0.00 0.00 0.00 0.00 0.00 0.00 0.00 0.00 0.00 0.00 0.00
0.00 0.00 0.00 0.00 0.00 0.00 0.00 0.00 0.00 0.00 0.00 0.00 0.00 0.00 0.00 0.00 0.00 0.00 0.00 0.00 0.00 0.00 0.00 0.00 0.00 0.00 0.00 0.00 0.00 0.00 0.00 0.00
0.00 0.00 0.00 0.00 0.00 0.00 0.00 0.00 0.00 0.00 0.00 0.00 0.00 0.00 0.00 0.00 0.00 0.00 0.00 0.00 0.00 0.00 0.00 0.00 0.00 0.00 0.00 0.00 0.00 0.00 0.00 0.00
0.00 0.00 0.00 0.00 0.00 0.00 0.00 0.00 0.00 0.00 0.00 0.00 0.00 0.00 0.00 0.00 0.00 0.00 0.00 0.00 0.00 0.00 0.00 0.00 0.00 0.00 0.00 0.00 0.00 0.00 0.00 0.00
0.01 0.01 0.00 0.00 0.00 0.00 0.00 0.00 0.00 0.00 0.00 0.00 0.00 0.00 0.00 0.00 0.00 0.00 0.00 0.00 0.00 0.00 0.00 0.00 0.00 0.00 0.00 0.00 0.00 0.00 0.00 0.00
0.02 0.01 0.00 0.00 0.00 0.00 0.00 0.00 0.00 0.00 0.00 0.00 0.00 0.00 0.00 0.00 0.00 0.00 0.00 0.00 0.00 0.00 0.00 0.00 0.00 0.00 0.00 0.00 0.00 0.00 0.00 0.00
0.03 0.01 0.01 0.00 0.00 0.00 0.00 0.00 0.00 0.00 0.00 0.00 0.00 0.00 0.00 0.00 0.00 0.00 0.00 0.00 0.00 0.00 0.00 0.00 0.00 0.00 0.00 0.00 0.00 0.00 0.00 0.00
0.01 0.01 0.00 0.00 0.00 0.00 0.00 0.00 0.00 0.00 0.00 0.00 0.00 0.00 0.00 0.00 0.00 0.00 0.00 0.00 0.00 0.00 0.00 0.00 0.00 0.00 0.00 0.00 0.00 0.00 0.00 0.00
0.00 0.00 0.00 0.00 0.00 0.00 0.00 0.00 0.00 0.00 0.00 0.00 0.00 0.00 0.00 0.00 0.00 0.00 0.00 0.00 0.00 0.00 0.00 0.00 0.00 0.00 0.00 0.00 0.00 0.00 0.00 0.00
MSLP
1013.97 1014.23 1014.52 1014.83 1015.10 1015.29 1015.46 1015.72 1015.87 1015.88 1016.05 1016.25 1016.41 1016.49 1016.52 1016.47 1016.56 1016.55 1016.65 1016.65 1016.80 1016.84 1016.70 1016.53 1016.47 1016.42 1016.45 1016.37 1016.25 1016.14 1015.56 1015.49
1014.07 1014.38 1014.69 1015.15 1015.47 1015.64 1015.72 1015.83 1016.08 1016.21 1016.32 1016.54 1016.83 1016.88 1016.84 1016.98 1016.97 1016.94 1017.02 1017.01 1017.13 1017.17 1017.15 1016.95 1016.83 1016.69 1016.70 1016.59 1016.40 1016.21 1016.06 1015.83
1014.48 1014.74 1015.06 1015.33 1015.62 1015.96 1016.14 1016.22 1016.21 1016.46 1016.73 1016.92 1016.87 1017.15 1017.08 1016.88 1017.59 1017.34 1017.38 1017.45 1017.47 1017.42 1017.29 1017.23 1016.94 1016.90 1016.91 1016.86 1016.38 1016.29 1016.25 1016.25
1014.44 1014.79 1015.15 1015.55 1016.02 1016.45 1016.61 1016.75 1016.70 1016.40 1016.79 1017.32 1017.28 1017.42 1017.57 1017.52 1017.85 1017.78 1017.74 1017.96 1017.87 1017.69 1017.64 1017.29 1016.95 1016.76 1016.74 1016.91 1016.61 1016.70 1016.43 1016.43
1014.26 1014.75 1015.24 1015.52 1015.99 1016.41 1016.62 1016.76 1016.98 1017.25 1017.07 1017.14 1017.58 1017.78 1017.98 1017.98 1018.00 1018.03 1017.92 1018.07 1018.12 1017.93 1017.80 1017.71 1017.63 1017.32 1017.15 1017.24 1017.11 1016.97 1016.94 1016.75
1014.33 1014.94 1015.50 1015.86 1016.04 1016.41 1016.66 1016.62 1017.01 1017.13 1017.40 1017.72 1017.51 1017.87 1018.18 1018.35 1018.42 1018.43 1018.40 1018.46 1018.58 1018.38 1018.17 1018.37 1018.03 1017.80 1017.87 1017.57 1017.58 1017.26 1017.18 1016.94
1014.22 1014.83 1015.32 1015.73 1016.03 1016.39 1016.68 1016.91 1017.07 1017.50 1018.03 1018.11 1017.89 1018.07 1018.51 1018.63 1018.72 1018.64 1018.74 1018.69 1018.64 1018.61 1018.37 1018.35 1018.22 1018.08 1017.90 1018.03 1017.93 1017.87 1017.61 1017.34
1014.13 1014.67 1015.09 1015.44 1015.85 1016.28 1016.65 1017.04 1017.27 1017.64 1018.00 1018.45 1018.74 1018.68 1018.99 1019.18 1019.25 1019.17 1019.23 1019.20 1019.04 1018.88 1018.59 1018.39 1018.43 1018.42 1018.11 1018.21 1018.09 1017.91 1017.92 1017.83
1013.84 1014.41 1014.89 1015.28 1015.71 1016.31 1016.72 1017.23 1017.59 1018.06 1018.48 1018.82 1018.84 1019.05 1019.36 1019.46 1019.60 1019.55 1019.53 1019.59 1019.35 1019.01 1018.68 1018.64 1018.50 1018.38 1018.58 1018.20 1018.10 1018.08 1018.01 1018.03
1013.61 1014.13 1014.81 1015.21 1015.71 1016.31 1016.86 1017.52 1017.93 1018.38 1018.83 1019.23 1019.28 1019.52 1019.59 1019.58 1019.67 1019.89 1019.91 1019.63 1019.55 1019.19 1018.93 1018.58 1018.70 1018.58 1018.54 1018.58 1018.43 1018.41 1018.55 1018.41
1013.04 1013.92 1014.65 1015.15 1015.84 1016.43 1017.24 1017.86 1018.16 1018.77 1019.10 1019.49 1019.84 1019.92 1020.08 1020.07 1019.97 1020.12 1020.20 1020.00 1019.90 1019.72 1019.52 1019.23 1019.01 1018.81 1018.54 1018.71 1018.87 1018.81 1018.86 1018.89
1012.55 1013.45 1014.28 1015.08 1016.06 1016.86 1017.57 1018.05 1018.64 1018.93 1019.35 1019.83 1020.18 1020.21 1020.29 1020.42 1020.50 1020.42 1020.22 1020.05 1020.14 1020.10 1019.90 1019.82 1019.71 1019.39 1018.95 1019.04 1019.17 1019.21 1019.22 1019.32
1012.10 1013.05 1014.06 1014.76 1015.61 1016.37 1017.18 1017.87 1018.81 1019.29 1019.57 1019.94 1020.22 1020.59 1020.75 1020.75 1020.95 1020.91 1020.67 1020.51 1020.59 1020.47 1020.15 1019.93 1019.78 1019.80 1019.33 1019.25 1019.33 1019.48 1019.54 1019.58
1011.61 1012.30 1013.42 1014.23 1015.05 1015.90 1016.62 1017.69 1018.69 1019.44 1020.02 1020.28 1020.58 1020.78 1020.82 1020.90 1020.84 1021.01 1021.15 1021.03 1021.09 1020.88 1020.55 1020.28 1020.28 1020.32 1019.78 1019.43 1019.04 1019.34 1019.32 1019.67
1010.74 1011.75 1012.99 1013.91 1014.78 1015.87 1016.87 1017.90 1018.81 1019.43 1020.12 1020.51 1020.82 1021.00 1021.31 1021.49 1021.42 1021.44 1021.44 1021.39 1021.50 1021.41 1021.33 1020.91 1020.81 1020.90 1020.73 1020.31 1019.81 1019.64 1019.95 1019.70
1010.95 1011.85 1012.82 1013.90 1014.62 1015.27 1015.97 1016.74 1017.90 1019.07 1019.88 1020.64 1021.08 1021.38 1021.46 1021.52 1021.59 1021.74 1022.04 1022.06 1021.93 1021.91 1021.93 1021.77 1021.58 1021.55 1021.54 1021.46 1021.42 1021.30 1020.80 1020.15
1010.55 1011.74 1012.70 1013.49 1014.23 1014.99 1015.80 1016.82 1017.98 1019.25 1020.07 1020.75 1021.36 1021.62 1021.68 1021.93 1022.07 1022.26 1022.30 1022.27 1022.63 1022.53 1022.49 1022.62 1022.69 1022.64 1022.46 1022.34 1022.09 1021.72 1022.22 1021.88
1010.77 1011.49 1012.38 1013.42 1014.16 1014.85 1015.46 1016.45 1017.70 1018.83 1019.70 1020.36 1021.14 1021.72 1021.78 1022.07 1022.17 1022.57 1022.84 1022.84 1023.04 1023.40 1023.58 1023.47 1023.20 1023.54 1023.46 1023.48 1023.09 1022.85 1022.92 1022.91
1010.90 1011.52 1012.60 1013.39 1014.24 1014.93 1015.69 1016.33 1017.29 1018.44 1019.26 1020.03 1020.89 1021.68 1021.82 1022.31 1022.47 1022.63 1022.85 1023.19 1023.50 1024.10 1024.26 1024.23 1023.94 1023.72 1024.00 1024.24 1024.00 1023.96 1023.84 1023.61
1010.91 1011.85 1012.69 1013.41 1014.33 1015.27 1016.30 1016.92 1017.62 1018.42 1019.36 1020.22 1020.77 1021.57 1021.82 1022.43 1022.87 1023.16 1023.23 1023.45 1023.82 1024.36 1024.76 1024.67 1024.44 1024.05 1024.27 1025.00 1024.64 1024.36 1024.03 1023.77
Thickness
5712 5709 5706 5702 5700 5698 5696 5693 5690 5689 5687 5685 5683 5680 5679 5679 5678 5678 5677 5676 5674 5673 5675 5677 5677 5677 5677 5677 5678 5679 5683 5683
5707 5703 5699 5694 5691 5690 5688 5687 5683 5682 5681 5679 5675 5673 5672 5670 5670 5670 5670 5669 5668 5667 5667 5669 5670 5671 5671 5672 5673 5674 5675 5677
5696 5693 5688 5685 5683 5680 5678 5677 5678 5675 5672 5670 5670 5665 5665 5666 5661 5663 5662 5661 5660 5661 5662 5663 5665 5665 5665 5666 5669 5669 5670 5670
5691 5686 5680 5676 5673 5669 5668 5666 5666 5670 5666 5661 5660 5659 5656 5657 5654 5655 5655 5653 5654 5655 5655 5657 5659 5661 5661 5661 5663 5662 5665 5665
5685 5679 5674 5671 5667 5663 5661 5660 5658 5656 5658 5656 5653 5650 5647 5646 5646 5647 5648 5647 5645 5647 5647 5648 5649 5652 5654 5654 5655 5656 5656 5659
5677 5671 5666 5662 5659 5656 5653 5653 5650 5651 5648 5644 5646 5642 5639 5637 5637 5637 5638 5637 5636 5638 5640 5638 5640 5642 5642 5646 5646 5649 5649 5651
5673 5666 5661 5656 5653 5649 5646 5645 5645 5640 5635 5635 5636 5633 5629 5628 5628 5628 5628 5628 5629 5629 5632 5633 5634 5634 5636 5635 5636 5638 5640 5642
5666 5661 5656 5653 5649 5645 5642 5638 5637 5633 5629 5625 5622 5623 5620 5617 5616 5617 5616 5617 5619 5620 5622 5624 5625 5626 5628 5627 5629 5629 5629 5630
5664 5658 5652 5649 5645 5638 5635 5630 5627 5623 5619 5615 5615 5613 5610 5609 5607 5608 5608 5607 5609 5612 5614 5614 5616 5616 5615 5619 5620 5620 5621 5620
5660 5654 5646 5643 5638 5632 5626 5620 5617 5613 5608 5604 5605 5602 5601 5601 5600 5598 5598 5600 5599 5603 5605 5608 5606 5608 5607 5606 5608 5608 5606 5608
5655 5647 5639 5635 5629 5623 5616 5610 5606 5600 5597 5594 5591 5591 5590 5589 5591 5589 5587 5588 5589 5590 5591 5593 5595 5597 5600 5598 5596 5596 5594 5594
5649 5641 5634 5627 5617 5609 5603 5600 5594 5592 5587 5582 5580 5580 5580 5578 5578 5578 5579 5581 5580 5579 5581 5580 5580 5583 5587 5586 5585 5583 5582 5580
5643 5634 5626 5620 5612 5604 5595 5591 5584 5580 5577 5574 5571 5567 5566 5566 5564 5564 5567 5568 5566 5567 5570 5571 5571 5571 5575 5575 5573 5571 5569 5568
5638 5633 5622 5615 5608 5600 5593 5583 5574 5568 5563 5562 5559 5557 5557 5556 5557 5555 5554 5555 5554 5556 5558 5559 5559 5557 5562 5564 5570 5565 5561 5556
5636 5627 5616 5609 5600 5591 5582 5573 5564 5559 5553 5550 5549 5548 5545 5542 5543 5542 5543 5542 5542 5542 5543 5546 5545 5542 5542 5547 5557 5556 5544 5544
5622 5615 5606 5597 5592 5587 5581 5575 5563 5552 5544 5538 5535 5536 5535 5533 5532 5530 5527 5526 5528 5528 5527 5528 5527 5526 5524 5523 5523 5522 5528 5536
5614 5604 5597 5591 5585 5579 5571 5562 5551 5540 5533 5526 5521 5521 5521 5519 5517 5515 5515 5515 5511 5511 5510 5507 5505 5504 5504 5503 5505 5508 5501 5504
5597 5593 5587 5580 5574 5568 5562 5553 5542 5533 5525 5520 5516 5511 5511 5508 5507 5503 5500 5499 5497 5493 5489 5488 5489 5484 5483 5481 5484 5485 5482 5480
5583 5580 5571 5566 5560 5555 5548 5543 5535 5525 5519 5513 5508 5502 5500 5495 5493 5491 5488 5485 5482 5475 5472 5470 5471 5472 5468 5464 5463 5461 5460 5458
5570 5563 5556 5552 5547 5540 5531 5526 5521 5514 5509 5503 5498 5491 5488 5482 5477 5474 5473 5470 5466 5461 5456 5455 5456 5457 5453 5443 5443 5443 5443 5443